Time,TemperatureF,DewpointF,PressureIn,WindDirection,WindDirectionDegrees,WindSpeedMPH,WindSpeedGustMPH,Humidity,HourlyPrecipIn,Conditions,Clouds,dailyrainin,SoftwareType,DateUTC
2013-01-05 00:00:00,29.3,20.7,29.94,SW,215,5.0,7.0,70,0.00,,,0.00,WUHU216HW,2013-01-05 05:00:00,
2013-01-05 00:02:00,29.3,20.7,29.94,North,0,0.0,7.0,70,0.00,,,0.00,WUHU216HW,2013-01-05 05:02:00,
2013-01-05 00:04:00,29.3,20.7,29.94,NNE,23,0.0,7.0,70,0.00,,,0.00,WUHU216HW,2013-01-05 05:04:00,
2013-01-05 00:09:00,29.3,20.7,29.94,WNW,293,2.0,5.0,70,0.00,,,0.00,WUHU216HW,2013-01-05 05:09:00,
2013-01-05 00:14:00,29.3,20.7,29.94,NNW,338,3.0,5.0,70,0.00,,,0.00,WUHU216HW,2013-01-05 05:14:00,
2013-01-05 00:19:00,29.1,20.5,29.94,WSW,248,0.0,5.0,70,0.00,,,0.00,WUHU216HW,2013-01-05 05:19:00,
2013-01-05 00:24:00,29.1,20.6,29.94,West,259,3.0,5.0,70,0.00,,,0.00,WUHU216HW,2013-01-05 05:24:00,
2013-01-05 00:29:00,29.1,20.8,29.94,NNW,338,5.0,5.0,71,0.00,,,0.00,WUHU216HW,2013-01-05 05:29:00,
2013-01-05 00:34:00,29.1,20.8,29.94,SSW,209,1.0,5.0,71,0.00,,,0.00,WUHU216HW,2013-01-05 05:34:00,
2013-01-05 00:39:00,29.1,20.8,29.94,NE,45,0.0,3.0,71,0.00,,,0.00,WUHU216HW,2013-01-05 05:39:00,
2013-01-05 00:45:00,28.9,21.0,29.94,North,0,0.0,5.0,72,0.00,,,0.00,WUHU216HW,2013-01-05 05:45:00,
2013-01-05 00:50:00,28.9,21.0,29.95,NNW,338,0.0,5.0,72,0.00,,,0.00,WUHU216HW,2013-01-05 05:50:00,
2013-01-05 00:55:00,28.9,21.0,29.95,NNW,338,0.0,0.0,72,0.00,,,0.00,WUHU216HW,2013-01-05 05:55:00,
2013-01-05 01:00:00,28.9,21.0,29.95,NW,315,0.0,0.0,72,0.00,,,0.00,WUHU216HW,2013-01-05 06:00:00,
2013-01-05 01:05:00,28.9,21.0,29.95,NE,45,0.0,0.0,72,0.00,,,0.00,WUHU216HW,2013-01-05 06:05:00,
2013-01-05 01:10:00,28.9,21.3,29.96,NNE,23,0.0,0.0,73,0.00,,,0.00,WUHU216HW,2013-01-05 06:10:00,
2013-01-05 01:15:00,28.7,21.1,29.96,SE,135,0.0,0.0,73,0.00,,,0.00,WUHU216HW,2013-01-05 06:15:00,
2013-01-05 01:20:00,28.7,21.4,29.96,SW,225,3.0,4.0,74,0.00,,,0.00,WUHU216HW,2013-01-05 06:20:00,
2013-01-05 01:25:00,28.7,21.4,29.97,SSW,203,3.0,4.0,74,0.00,,,0.00,WUHU216HW,2013-01-05 06:25:00,
2013-01-05 01:30:00,28.7,21.4,29.97,South,180,0.0,3.0,74,0.00,,,0.00,WUHU216HW,2013-01-05 06:30:00,
2013-01-05 01:35:00,28.7,21.4,29.97,NW,315,2.0,2.0,74,0.00,,,0.00,WUHU216HW,2013-01-05 06:35:00,
2013-01-05 01:40:00,28.7,21.4,29.97,WNW,293,0.0,4.0,74,0.00,,,0.00,WUHU216HW,2013-01-05 06:40:00,
2013-01-05 01:45:00,28.7,21.4,29.97,SE,135,5.0,5.0,74,0.00,,,0.00,WUHU216HW,2013-01-05 06:45:00,
2013-01-05 01:50:00,28.7,21.4,29.97,SE,135,0.0,5.0,74,0.00,,,0.00,WUHU216HW,2013-01-05 06:50:00,
2013-01-05 01:55:00,28.7,21.4,29.97,SE,135,3.0,3.0,74,0.00,,,0.00,WUHU216HW,2013-01-05 06:55:00,
2013-01-05 02:00:00,28.7,21.4,29.97,South,180,0.0,8.0,74,0.00,,,0.00,WUHU216HW,2013-01-05 07:00:00,
2013-01-05 02:05:00,28.7,21.8,29.97,ENE,68,1.0,8.0,75,0.00,,,0.00,WUHU216HW,2013-01-05 07:05:00,
2013-01-05 02:10:00,28.7,21.4,29.98,SSE,158,0.0,6.0,74,0.00,,,0.00,WUHU216HW,2013-01-05 07:10:00,
2013-01-05 02:15:00,28.7,21.4,29.98,ENE,68,0.0,1.0,74,0.00,,,0.00,WUHU216HW,2013-01-05 07:15:00,
2013-01-05 02:21:00,28.7,21.4,29.99,ENE,68,0.0,0.0,74,0.00,,,0.00,WUHU216HW,2013-01-05 07:21:00,
2013-01-05 02:26:00,28.7,21.4,29.98,NE,45,0.0,0.0,74,0.00,,,0.00,WUHU216HW,2013-01-05 07:26:00,
2013-01-05 02:31:00,28.7,21.4,29.98,WNW,293,0.0,2.0,74,0.00,,,0.00,WUHU216HW,2013-01-05 07:31:00,
2013-01-05 02:36:00,28.7,21.4,29.99,NNE,23,0.0,2.0,74,0.00,,,0.00,WUHU216HW,2013-01-05 07:36:00,
2013-01-05 02:41:00,28.7,21.4,29.99,ESE,113,0.0,3.0,74,0.00,,,0.00,WUHU216HW,2013-01-05 07:41:00,
2013-01-05 02:46:00,28.7,21.4,29.99,West,270,0.0,3.0,74,0.00,,,0.00,WUHU216HW,2013-01-05 07:46:00,
2013-01-05 02:51:00,28.9,21.6,29.99,NW,312,4.0,4.0,74,0.00,,,0.00,WUHU216HW,2013-01-05 07:51:00,
2013-01-05 02:56:00,28.9,21.6,29.99,NE,45,0.0,4.0,74,0.00,,,0.00,WUHU216HW,2013-01-05 07:56:00,
2013-01-05 03:01:00,28.9,21.6,29.99,ENE,68,0.0,0.0,74,0.00,,,0.00,WUHU216HW,2013-01-05 08:01:00,
2013-01-05 03:06:00,29.1,21.8,29.99,West,270,0.0,7.0,74,0.00,,,0.00,WUHU216HW,2013-01-05 08:06:00,
2013-01-05 03:11:00,29.1,21.8,29.99,SE,135,0.0,7.0,74,0.00,,,0.00,WUHU216HW,2013-01-05 08:11:00,
2013-01-05 03:16:00,29.1,21.8,30.00,North,0,0.0,0.0,74,0.00,,,0.00,WUHU216HW,2013-01-05 08:16:00,
2013-01-05 03:21:00,29.1,21.8,30.00,NW,315,0.0,0.0,74,0.00,,,0.00,WUHU216HW,2013-01-05 08:21:00,
2013-01-05 03:26:00,29.1,21.8,30.00,ENE,68,0.0,0.0,74,0.00,,,0.00,WUHU216HW,2013-01-05 08:26:00,
2013-01-05 03:31:00,29.1,21.8,30.00,SE,135,0.0,0.0,74,0.00,,,0.00,WUHU216HW,2013-01-05 08:31:00,
2013-01-05 03:36:00,29.3,22.0,30.00,South,180,0.0,0.0,74,0.00,,,0.00,WUHU216HW,2013-01-05 08:36:00,
2013-01-05 03:41:00,29.4,22.1,30.00,SSW,203,0.0,0.0,74,0.00,,,0.00,WUHU216HW,2013-01-05 08:41:00,
2013-01-05 03:46:00,29.4,21.8,30.00,WNW,282,3.0,11.0,73,0.00,,,0.00,WUHU216HW,2013-01-05 08:46:00,
2013-01-05 03:51:00,29.6,22.0,30.00,NW,323,3.0,11.0,73,0.00,,,0.00,WUHU216HW,2013-01-05 08:51:00,
2013-01-05 03:56:00,29.6,22.0,30.00,SSW,203,0.0,6.0,73,0.00,,,0.00,WUHU216HW,2013-01-05 08:56:00,
2013-01-05 04:01:00,29.8,22.1,30.01,West,270,3.0,6.0,73,0.00,,,0.00,WUHU216HW,2013-01-05 09:01:00,
2013-01-05 04:06:00,30.0,22.0,30.00,SW,225,7.0,7.0,72,0.00,,,0.00,WUHU216HW,2013-01-05 09:06:00,
2013-01-05 04:11:00,30.0,22.0,30.01,East,90,0.0,8.0,72,0.00,,,0.00,WUHU216HW,2013-01-05 09:11:00,
2013-01-05 04:16:00,30.0,22.0,30.00,ESE,113,0.0,8.0,72,0.00,,,0.00,WUHU216HW,2013-01-05 09:16:00,
2013-01-05 04:21:00,30.0,21.7,30.01,North,0,1.0,3.0,71,0.00,,,0.00,WUHU216HW,2013-01-05 09:21:00,
2013-01-05 04:26:00,30.0,21.7,30.01,WSW,248,0.0,3.0,71,0.00,,,0.00,WUHU216HW,2013-01-05 09:26:00,
2013-01-05 04:31:00,30.0,21.7,30.01,NE,45,0.0,7.0,71,0.00,,,0.00,WUHU216HW,2013-01-05 09:31:00,
2013-01-05 04:36:00,30.0,21.7,30.01,SE,135,5.0,7.0,71,0.00,,,0.00,WUHU216HW,2013-01-05 09:36:00,
2013-01-05 04:41:00,30.0,21.7,30.02,SSW,203,3.0,5.0,71,0.00,,,0.00,WUHU216HW,2013-01-05 09:41:00,
2013-01-05 04:46:00,30.0,21.7,30.02,South,180,4.0,4.0,71,0.00,,,0.00,WUHU216HW,2013-01-05 09:46:00,
2013-01-05 04:51:00,30.0,21.7,30.02,NW,315,12.0,12.0,71,0.00,,,0.00,WUHU216HW,2013-01-05 09:51:00,
2013-01-05 04:56:00,30.0,21.7,30.02,NNW,338,4.0,12.0,71,0.00,,,0.00,WUHU216HW,2013-01-05 09:56:00,
2013-01-05 05:01:00,30.0,21.8,30.03,NNW,338,0.0,5.0,71,0.00,,,0.00,WUHU216HW,2013-01-05 10:01:00,
2013-01-05 05:06:00,30.0,21.7,30.03,NNW,338,3.0,5.0,71,0.00,,,0.00,WUHU216HW,2013-01-05 10:06:00,
2013-01-05 05:11:00,29.8,21.2,30.03,WSW,248,3.0,3.0,70,0.00,,,0.00,WUHU216HW,2013-01-05 10:11:00,
2013-01-05 05:16:00,29.6,21.0,30.03,SSW,203,0.0,3.0,70,0.00,,,0.00,WUHU216HW,2013-01-05 10:16:00,
2013-01-05 05:21:00,29.4,20.9,30.04,NNE,23,0.0,4.0,70,0.00,,,0.00,WUHU216HW,2013-01-05 10:21:00,
2013-01-05 05:26:00,29.3,20.7,30.04,NNW,338,0.0,5.0,70,0.00,,,0.00,WUHU216HW,2013-01-05 10:26:00,
2013-01-05 05:31:00,29.3,20.7,30.05,North,0,2.0,5.0,70,0.00,,,0.00,WUHU216HW,2013-01-05 10:31:00,
2013-01-05 05:36:00,29.1,20.5,30.05,ESE,113,3.0,3.0,70,0.00,,,0.00,WUHU216HW,2013-01-05 10:36:00,
2013-01-05 05:41:00,28.9,20.4,30.05,ESE,113,4.0,6.0,70,0.00,,,0.00,WUHU216HW,2013-01-05 10:41:00,
2013-01-05 05:46:00,28.9,20.4,30.06,SSE,158,1.0,6.0,70,0.00,,,0.00,WUHU216HW,2013-01-05 10:46:00,
2013-01-05 05:51:00,28.9,20.4,30.06,West,270,1.0,5.0,70,0.00,,,0.00,WUHU216HW,2013-01-05 10:51:00,
2013-01-05 05:56:00,28.7,20.2,30.06,NE,39,2.0,5.0,70,0.00,,,0.00,WUHU216HW,2013-01-05 10:56:00,
2013-01-05 06:01:00,28.9,20.4,30.07,NNE,23,8.0,8.0,70,0.00,,,0.00,WUHU216HW,2013-01-05 11:01:00,
2013-01-05 06:06:00,28.9,20.4,30.07,South,180,4.0,8.0,70,0.00,,,0.00,WUHU216HW,2013-01-05 11:06:00,
2013-01-05 06:11:00,28.9,20.0,30.07,West,270,1.0,5.0,69,0.00,,,0.00,WUHU216HW,2013-01-05 11:11:00,
2013-01-05 06:17:00,29.1,20.2,30.07,North,0,2.0,9.0,69,0.00,,,0.00,WUHU216HW,2013-01-05 11:17:00,
2013-01-05 06:22:00,29.1,20.2,30.07,ESE,113,2.0,9.0,69,0.00,,,0.00,WUHU216HW,2013-01-05 11:22:00,
2013-01-05 06:27:00,29.1,20.2,30.08,West,270,4.0,4.0,69,0.00,,,0.00,WUHU216HW,2013-01-05 11:27:00,
2013-01-05 06:32:00,28.9,20.0,30.08,SSW,203,4.0,4.0,69,0.00,,,0.00,WUHU216HW,2013-01-05 11:32:00,
2013-01-05 06:37:00,28.9,20.0,30.08,South,180,0.0,5.0,69,0.00,,,0.00,WUHU216HW,2013-01-05 11:37:00,
2013-01-05 06:42:00,28.9,20.0,30.09,NNE,23,6.0,8.0,69,0.00,,,0.00,WUHU216HW,2013-01-05 11:42:00,
2013-01-05 06:47:00,28.9,20.0,30.09,NE,45,2.0,8.0,69,0.00,,,0.00,WUHU216HW,2013-01-05 11:47:00,
2013-01-05 06:52:00,28.7,19.9,30.09,East,90,0.0,3.0,69,0.00,,,0.00,WUHU216HW,2013-01-05 11:52:00,
2013-01-05 06:57:00,28.5,19.7,30.10,East,90,1.0,3.0,69,0.00,,,0.00,WUHU216HW,2013-01-05 11:57:00,
2013-01-05 07:02:00,28.2,19.4,30.10,ENE,68,0.0,1.0,69,0.00,,,0.00,WUHU216HW,2013-01-05 12:02:00,
2013-01-05 07:07:00,28.0,19.2,30.11,ESE,113,0.0,0.0,69,0.00,,,0.00,WUHU216HW,2013-01-05 12:07:00,
2013-01-05 07:12:00,27.3,18.5,30.11,NNE,23,3.0,3.0,69,0.00,,,0.00,WUHU216HW,2013-01-05 12:12:00,
2013-01-05 07:17:00,27.1,18.3,30.11,SE,135,0.0,3.0,69,0.00,,,0.00,WUHU216HW,2013-01-05 12:17:00,
2013-01-05 07:22:00,27.1,18.6,30.12,SE,135,0.0,0.0,70,0.00,,,0.00,WUHU216HW,2013-01-05 12:22:00,
2013-01-05 07:27:00,27.3,18.8,30.12,SW,225,0.0,0.0,70,0.00,,,0.00,WUHU216HW,2013-01-05 12:27:00,
2013-01-05 07:32:00,27.6,19.2,30.12,WSW,248,0.0,5.0,70,0.00,,,0.00,WUHU216HW,2013-01-05 12:32:00,
2013-01-05 07:37:00,28.0,19.5,30.12,North,6,2.0,5.0,70,0.00,,,0.00,WUHU216HW,2013-01-05 12:37:00,
2013-01-05 07:42:00,28.2,19.7,30.13,NNW,338,4.0,4.0,70,0.00,,,0.00,WUHU216HW,2013-01-05 12:42:00,
2013-01-05 07:47:00,28.2,19.7,30.13,NNW,338,0.0,5.0,70,0.00,,,0.00,WUHU216HW,2013-01-05 12:47:00,
2013-01-05 07:52:00,28.5,20.1,30.14,NNE,23,2.0,5.0,70,0.00,,,0.00,WUHU216HW,2013-01-05 12:52:00,
2013-01-05 07:57:00,28.9,20.4,30.14,NNE,23,2.0,5.0,70,0.00,,,0.00,WUHU216HW,2013-01-05 12:57:00,
2013-01-05 08:03:00,29.1,20.5,30.15,North,0,4.0,5.0,70,0.00,,,0.00,WUHU216HW,2013-01-05 13:03:00,
2013-01-05 08:08:00,29.3,21.0,30.15,NNW,338,0.0,4.0,71,0.00,,,0.00,WUHU216HW,2013-01-05 13:08:00,
2013-01-05 08:13:00,29.3,21.0,30.15,NW,315,0.0,3.0,71,0.00,,,0.00,WUHU216HW,2013-01-05 13:13:00,
2013-01-05 08:18:00,29.4,21.2,30.16,North,0,0.0,7.0,71,0.00,,,0.00,WUHU216HW,2013-01-05 13:18:00,
2013-01-05 08:23:00,29.3,21.0,30.16,NNE,23,4.0,7.0,71,0.00,,,0.00,WUHU216HW,2013-01-05 13:23:00,
2013-01-05 08:28:00,29.3,20.8,30.17,NNW,338,0.0,4.0,71,0.00,,,0.00,WUHU216HW,2013-01-05 13:28:00,
2013-01-05 08:33:00,29.1,20.8,30.17,WSW,248,0.0,0.0,71,0.00,,,0.00,WUHU216HW,2013-01-05 13:33:00,
2013-01-05 08:38:00,29.3,20.7,30.17,NNW,338,0.0,4.0,70,0.00,,,0.00,WUHU216HW,2013-01-05 13:38:00,
2013-01-05 08:43:00,29.4,20.9,30.17,ESE,113,0.0,4.0,70,0.00,,,0.00,WUHU216HW,2013-01-05 13:43:00,
2013-01-05 08:48:00,29.4,20.9,30.18,ENE,63,2.0,4.0,70,0.00,,,0.00,WUHU216HW,2013-01-05 13:48:00,
2013-01-05 08:53:00,29.6,20.9,30.19,ESE,113,5.0,5.0,69,0.00,,,0.00,WUHU216HW,2013-01-05 13:53:00,
2013-01-05 08:58:00,29.6,20.7,30.19,North,0,5.0,5.0,69,0.00,,,0.00,WUHU216HW,2013-01-05 13:58:00,
2013-01-05 09:03:00,29.8,20.8,30.20,ENE,68,0.0,5.0,69,0.00,,,0.00,WUHU216HW,2013-01-05 14:03:00,
2013-01-05 09:08:00,30.0,20.3,30.20,NW,322,5.0,6.0,67,0.00,,,0.00,WUHU216HW,2013-01-05 14:08:00,
2013-01-05 09:13:00,30.2,20.4,30.20,NNW,338,8.0,8.0,67,0.00,,,0.00,WUHU216HW,2013-01-05 14:13:00,
2013-01-05 09:18:00,30.7,20.6,30.21,WNW,293,10.0,10.0,66,0.00,,,0.00,WUHU216HW,2013-01-05 14:18:00,
2013-01-05 09:23:00,30.7,20.3,30.21,NE,45,5.0,10.0,65,0.00,,,0.00,WUHU216HW,2013-01-05 14:23:00,
2013-01-05 09:28:00,30.9,20.1,30.21,ESE,117,3.0,8.0,64,0.00,,,0.00,WUHU216HW,2013-01-05 14:28:00,
2013-01-05 09:33:00,30.9,20.1,30.22,SE,135,3.0,3.0,64,0.00,,,0.00,WUHU216HW,2013-01-05 14:33:00,
2013-01-05 09:39:00,31.1,19.9,30.22,ENE,68,4.0,4.0,63,0.00,,,0.00,WUHU216HW,2013-01-05 14:39:00,
2013-01-05 09:44:00,31.2,19.7,30.22,WNW,293,2.0,4.0,62,0.00,,,0.00,WUHU216HW,2013-01-05 14:44:00,
2013-01-05 09:49:00,31.6,19.7,30.23,SSW,203,0.0,6.0,61,0.00,,,0.00,WUHU216HW,2013-01-05 14:49:00,
2013-01-05 09:54:00,31.8,19.9,30.24,East,98,2.0,6.0,61,0.00,,,0.00,WUHU216HW,2013-01-05 14:54:00,
2013-01-05 09:59:00,32.1,20.2,30.24,NNW,338,2.0,5.0,61,0.00,,,0.00,WUHU216HW,2013-01-05 14:59:00,
2013-01-05 10:04:00,32.3,20.2,30.24,NNE,23,0.0,5.0,60,0.00,,,0.00,WUHU216HW,2013-01-05 15:04:00,
2013-01-05 10:09:00,32.3,19.8,30.25,East,90,2.0,5.0,59,0.00,,,0.00,WUHU216HW,2013-01-05 15:09:00,
2013-01-05 10:14:00,32.5,19.8,30.25,North,0,3.0,3.0,59,0.00,,,0.00,WUHU216HW,2013-01-05 15:14:00,
2013-01-05 10:19:00,32.5,19.3,30.25,NE,45,5.0,5.0,58,0.00,,,0.00,WUHU216HW,2013-01-05 15:19:00,
2013-01-05 10:24:00,32.7,19.5,30.25,WSW,248,3.0,6.0,58,0.00,,,0.00,WUHU216HW,2013-01-05 15:24:00,
2013-01-05 10:29:00,33.6,20.3,30.25,NE,45,2.0,5.0,58,0.00,,,0.00,WUHU216HW,2013-01-05 15:29:00,
2013-01-05 10:34:00,34.1,20.8,30.25,West,270,3.0,7.0,58,0.00,,,0.00,WUHU216HW,2013-01-05 15:34:00,
2013-01-05 10:39:00,34.5,20.3,30.25,North,351,4.0,7.0,56,0.00,,,0.00,WUHU216HW,2013-01-05 15:39:00,
2013-01-05 10:44:00,35.0,20.9,30.25,ENE,68,0.0,7.0,56,0.00,,,0.00,WUHU216HW,2013-01-05 15:44:00,
2013-01-05 10:49:00,35.4,21.2,30.25,NE,45,1.0,5.0,56,0.00,,,0.00,WUHU216HW,2013-01-05 15:49:00,
2013-01-05 10:54:00,35.9,21.3,30.25,NE,45,9.0,9.0,55,0.00,,,0.00,WUHU216HW,2013-01-05 15:54:00,
2013-01-05 10:59:00,35.7,20.7,30.25,NNW,335,4.0,9.0,54,0.00,,,0.00,WUHU216HW,2013-01-05 15:59:00,
2013-01-05 11:04:00,35.7,20.3,30.25,North,8,3.0,7.0,53,0.00,,,0.00,WUHU216HW,2013-01-05 16:04:00,
2013-01-05 11:09:00,35.4,19.9,30.26,NNW,334,3.0,7.0,53,0.00,,,0.00,WUHU216HW,2013-01-05 16:09:00,
2013-01-05 11:14:00,35.4,19.9,30.25,NNE,31,5.0,7.0,53,0.00,,,0.00,WUHU216HW,2013-01-05 16:14:00,
2013-01-05 11:19:00,35.2,19.3,30.26,SW,225,5.0,7.0,52,0.00,,,0.00,WUHU216HW,2013-01-05 16:19:00,
2013-01-05 11:25:00,35.2,19.3,30.25,South,180,1.0,16.0,52,0.00,,,0.00,WUHU216HW,2013-01-05 16:25:00,
2013-01-05 11:30:00,35.4,19.5,30.26,NNW,338,4.0,16.0,52,0.00,,,0.00,WUHU216HW,2013-01-05 16:30:00,
2013-01-05 11:35:00,35.7,19.5,30.27,NNE,23,10.0,10.0,52,0.00,,,0.00,WUHU216HW,2013-01-05 16:35:00,
2013-01-05 11:40:00,35.7,19.8,30.27,SSE,158,2.0,10.0,52,0.00,,,0.00,WUHU216HW,2013-01-05 16:40:00,
2013-01-05 11:45:00,35.7,19.8,30.27,NNE,23,5.0,10.0,52,0.00,,,0.00,WUHU216HW,2013-01-05 16:45:00,
2013-01-05 11:50:00,35.4,19.1,30.28,SSW,203,6.0,7.0,51,0.00,,,0.00,WUHU216HW,2013-01-05 16:50:00,
2013-01-05 11:55:00,35.2,18.9,30.28,NE,45,9.0,9.0,51,0.00,,,0.00,WUHU216HW,2013-01-05 16:55:00,
2013-01-05 12:00:00,35.2,18.9,30.28,ENE,68,4.0,9.0,51,0.00,,,0.00,WUHU216HW,2013-01-05 17:00:00,
2013-01-05 12:05:00,35.4,19.1,30.28,WNW,291,5.0,6.0,51,0.00,,,0.00,WUHU216HW,2013-01-05 17:05:00,
2013-01-05 12:10:00,35.4,19.1,30.28,NNW,338,5.0,6.0,51,0.00,,,0.00,WUHU216HW,2013-01-05 17:10:00,
2013-01-05 12:15:00,35.7,19.4,30.28,NNW,339,7.0,10.0,51,0.00,,,0.00,WUHU216HW,2013-01-05 17:15:00,
2013-01-05 12:20:00,35.7,19.4,30.28,SSW,203,3.0,11.0,51,0.00,,,0.00,WUHU216HW,2013-01-05 17:20:00,
2013-01-05 12:25:00,35.7,19.4,30.28,SSE,158,0.0,11.0,51,0.00,,,0.00,WUHU216HW,2013-01-05 17:25:00,
2013-01-05 12:30:00,35.7,19.4,30.28,East,90,0.0,6.0,51,0.00,,,0.00,WUHU216HW,2013-01-05 17:30:00,
2013-01-05 12:35:00,35.7,19.4,30.28,NW,315,0.0,6.0,51,0.00,,,0.00,WUHU216HW,2013-01-05 17:35:00,
2013-01-05 12:40:00,35.4,18.5,30.28,NE,45,4.0,5.0,50,0.00,,,0.00,WUHU216HW,2013-01-05 17:40:00,
2013-01-05 12:45:00,35.2,18.5,30.28,NNE,23,3.0,4.0,50,0.00,,,0.00,WUHU216HW,2013-01-05 17:45:00,
2013-01-05 12:50:00,34.5,17.7,30.28,ENE,62,3.0,7.0,50,0.00,,,0.00,WUHU216HW,2013-01-05 17:50:00,
2013-01-05 12:55:00,34.3,17.6,30.28,North,350,7.0,7.0,50,0.00,,,0.00,WUHU216HW,2013-01-05 17:55:00,
2013-01-05 13:00:00,34.1,17.8,30.28,NE,45,6.0,7.0,51,0.00,,,0.00,WUHU216HW,2013-01-05 18:00:00,
2013-01-05 13:05:00,33.9,17.6,30.29,WSW,248,0.0,6.0,51,0.00,,,0.00,WUHU216HW,2013-01-05 18:05:00,
2013-01-05 13:10:00,34.1,18.2,30.29,WSW,248,4.0,6.0,52,0.00,,,0.00,WUHU216HW,2013-01-05 18:10:00,
2013-01-05 13:15:00,34.3,18.4,30.30,WSW,248,0.0,6.0,52,0.00,,,0.00,WUHU216HW,2013-01-05 18:15:00,
2013-01-05 13:20:00,34.3,18.4,30.29,WSW,248,3.0,6.0,52,0.00,,,0.00,WUHU216HW,2013-01-05 18:20:00,
2013-01-05 13:25:00,34.3,18.0,30.29,WSW,248,2.0,3.0,51,0.00,,,0.00,WUHU216HW,2013-01-05 18:25:00,
2013-01-05 13:31:00,34.1,18.0,30.29,WSW,248,4.0,6.0,51,0.00,,,0.00,WUHU216HW,2013-01-05 18:31:00,
2013-01-05 13:36:00,34.3,18.0,30.29,WSW,248,0.0,6.0,51,0.00,,,0.00,WUHU216HW,2013-01-05 18:36:00,
2013-01-05 13:41:00,34.3,18.0,30.28,WSW,248,6.0,6.0,51,0.00,,,0.00,WUHU216HW,2013-01-05 18:41:00,
2013-01-05 13:46:00,34.1,17.8,30.28,WSW,248,4.0,7.0,51,0.00,,,0.00,WUHU216HW,2013-01-05 18:46:00,
2013-01-05 13:51:00,33.8,17.4,30.28,WSW,248,3.0,7.0,51,0.00,,,0.00,WUHU216HW,2013-01-05 18:51:00,
2013-01-05 13:56:00,33.8,17.4,30.28,WSW,248,5.0,5.0,51,0.00,,,0.00,WUHU216HW,2013-01-05 18:56:00,
2013-01-05 14:01:00,33.9,18.1,30.28,WSW,248,4.0,5.0,52,0.00,,,0.00,WUHU216HW,2013-01-05 19:01:00,
2013-01-05 14:06:00,33.9,18.1,30.29,WSW,248,2.0,4.0,52,0.00,,,0.00,WUHU216HW,2013-01-05 19:06:00,
2013-01-05 14:11:00,33.6,17.7,30.29,NE,45,0.0,3.0,52,0.00,,,0.00,WUHU216HW,2013-01-05 19:11:00,
2013-01-05 14:16:00,33.2,18.0,30.29,SSW,203,2.0,3.0,53,0.00,,,0.00,WUHU216HW,2013-01-05 19:16:00,
2013-01-05 14:21:00,32.7,17.3,30.29,NNW,338,0.0,2.0,53,0.00,,,0.00,WUHU216HW,2013-01-05 19:21:00,
2013-01-05 14:26:00,32.5,17.2,30.29,SSE,158,2.0,2.0,53,0.00,,,0.00,WUHU216HW,2013-01-05 19:26:00,
2013-01-05 14:31:00,32.3,17.0,30.29,ENE,68,1.0,2.0,53,0.00,,,0.00,WUHU216HW,2013-01-05 19:31:00,
2013-01-05 14:36:00,31.8,16.5,30.29,ESE,113,0.0,2.0,53,0.00,,,0.00,WUHU216HW,2013-01-05 19:36:00,
2013-01-05 14:41:00,31.8,16.9,30.29,East,90,0.0,4.0,54,0.00,,,0.00,WUHU216HW,2013-01-05 19:41:00,
2013-01-05 14:46:00,31.6,16.8,30.29,ENE,68,0.0,4.0,54,0.00,,,0.00,WUHU216HW,2013-01-05 19:46:00,
2013-01-05 14:51:00,31.2,16.4,30.28,WNW,293,0.0,0.0,54,0.00,,,0.00,WUHU216HW,2013-01-05 19:51:00,
2013-01-05 14:56:00,31.1,16.3,30.28,NE,45,2.0,3.0,54,0.00,,,0.00,WUHU216HW,2013-01-05 19:56:00,
2013-01-05 15:01:00,30.9,16.1,30.28,NE,45,3.0,4.0,54,0.00,,,0.00,WUHU216HW,2013-01-05 20:01:00,
2013-01-05 15:06:00,30.7,15.9,30.28,NNE,23,0.0,4.0,54,0.00,,,0.00,WUHU216HW,2013-01-05 20:06:00,
2013-01-05 15:11:00,30.7,16.3,30.28,NNW,338,2.0,2.0,55,0.00,,,0.00,WUHU216HW,2013-01-05 20:11:00,
2013-01-05 15:16:00,30.7,16.3,30.29,NNW,338,3.0,6.0,54,0.00,,,0.00,WUHU216HW,2013-01-05 20:16:00,
2013-01-05 15:21:00,30.3,16.0,30.29,East,90,0.0,6.0,55,0.00,,,0.00,WUHU216HW,2013-01-05 20:21:00,
2013-01-05 15:26:00,30.0,15.7,30.29,NNE,23,6.0,6.0,56,0.00,,,0.00,WUHU216HW,2013-01-05 20:26:00,
2013-01-05 15:31:00,29.8,15.5,30.28,North,0,2.0,6.0,56,0.00,,,0.00,WUHU216HW,2013-01-05 20:31:00,
2013-01-05 15:36:00,29.4,15.6,30.28,North,0,0.0,2.0,56,0.00,,,0.00,WUHU216HW,2013-01-05 20:36:00,
2013-01-05 15:41:00,29.3,15.4,30.29,NNE,23,0.0,6.0,56,0.00,,,0.00,WUHU216HW,2013-01-05 20:41:00,
2013-01-05 15:46:00,29.1,15.3,30.29,NW,315,0.0,6.0,56,0.00,,,0.00,WUHU216HW,2013-01-05 20:46:00,
2013-01-05 15:51:00,29.1,15.7,30.30,NNW,338,2.0,2.0,57,0.00,,,0.00,WUHU216HW,2013-01-05 20:51:00,
2013-01-05 15:56:00,28.7,15.4,30.30,NW,315,4.0,4.0,57,0.00,,,0.00,WUHU216HW,2013-01-05 20:56:00,
2013-01-05 16:01:00,28.5,15.2,30.30,North,0,0.0,4.0,57,0.00,,,0.00,WUHU216HW,2013-01-05 21:01:00,
2013-01-05 16:06:00,28.2,15.3,30.30,North,0,1.0,2.0,58,0.00,,,0.00,WUHU216HW,2013-01-05 21:06:00,
2013-01-05 16:11:00,28.2,15.3,30.30,NNW,338,2.0,2.0,58,0.00,,,0.00,WUHU216HW,2013-01-05 21:11:00,
2013-01-05 16:16:00,28.0,15.1,30.30,NNE,23,0.0,2.0,58,0.00,,,0.00,WUHU216HW,2013-01-05 21:16:00,
2013-01-05 16:21:00,27.6,14.7,30.31,WSW,248,0.0,0.0,58,0.00,,,0.00,WUHU216HW,2013-01-05 21:21:00,
2013-01-05 16:26:00,27.5,14.6,30.31,NNE,23,0.0,2.0,58,0.00,,,0.00,WUHU216HW,2013-01-05 21:26:00,
2013-01-05 16:31:00,27.1,14.6,30.31,NNW,338,0.0,3.0,59,0.00,,,0.00,WUHU216HW,2013-01-05 21:31:00,
2013-01-05 16:36:00,26.9,14.4,30.32,NNW,338,0.0,3.0,59,0.00,,,0.00,WUHU216HW,2013-01-05 21:36:00,
2013-01-05 16:41:00,26.7,14.3,30.31,NNW,338,0.0,0.0,59,0.00,,,0.00,WUHU216HW,2013-01-05 21:41:00,
2013-01-05 16:46:00,26.4,13.9,30.32,NNW,338,2.0,2.0,59,0.00,,,0.00,WUHU216HW,2013-01-05 21:46:00,
2013-01-05 16:51:00,26.2,14.2,30.32,West,270,0.0,2.0,60,0.00,,,0.00,WUHU216HW,2013-01-05 21:51:00,
2013-01-05 16:56:00,25.8,13.8,30.32,West,270,0.0,2.0,60,0.00,,,0.00,WUHU216HW,2013-01-05 21:56:00,
2013-01-05 17:01:00,25.5,13.5,30.31,West,270,0.0,0.0,60,0.00,,,0.00,WUHU216HW,2013-01-05 22:01:00,
2013-01-05 17:06:00,25.5,13.5,30.32,West,270,0.0,0.0,60,0.00,,,0.00,WUHU216HW,2013-01-05 22:06:00,
2013-01-05 17:11:00,25.3,13.7,30.32,West,270,0.0,0.0,61,0.00,,,0.00,WUHU216HW,2013-01-05 22:11:00,
2013-01-05 17:16:00,24.9,13.7,30.32,West,270,0.0,0.0,62,0.00,,,0.00,WUHU216HW,2013-01-05 22:16:00,
2013-01-05 17:21:00,24.8,13.4,30.32,West,270,0.0,0.0,62,0.00,,,0.00,WUHU216HW,2013-01-05 22:21:00,
2013-01-05 17:26:00,24.6,13.4,30.32,West,270,0.0,0.0,62,0.00,,,0.00,WUHU216HW,2013-01-05 22:26:00,
2013-01-05 17:31:00,24.6,13.7,30.32,West,270,0.0,0.0,63,0.00,,,0.00,WUHU216HW,2013-01-05 22:31:00,
2013-01-05 17:36:00,24.6,13.7,30.32,West,270,0.0,0.0,63,0.00,,,0.00,WUHU216HW,2013-01-05 22:36:00,
2013-01-05 17:41:00,24.4,13.5,30.32,West,270,0.0,0.0,63,0.00,,,0.00,WUHU216HW,2013-01-05 22:41:00,
2013-01-05 17:46:00,24.4,13.5,30.33,West,270,0.0,0.0,63,0.00,,,0.00,WUHU216HW,2013-01-05 22:46:00,
2013-01-05 17:51:00,24.0,13.2,30.33,West,270,0.0,0.0,63,0.00,,,0.00,WUHU216HW,2013-01-05 22:51:00,
2013-01-05 17:56:00,23.9,13.0,30.33,West,270,0.0,0.0,63,0.00,,,0.00,WUHU216HW,2013-01-05 22:56:00,
2013-01-05 18:01:00,23.5,13.0,30.33,West,270,0.0,0.0,64,0.00,,,0.00,WUHU216HW,2013-01-05 23:01:00,
2013-01-05 18:06:00,23.3,12.9,30.33,West,270,0.0,0.0,64,0.00,,,0.00,WUHU216HW,2013-01-05 23:06:00,
2013-01-05 18:11:00,23.0,12.5,30.33,West,270,0.0,0.0,64,0.00,,,0.00,WUHU216HW,2013-01-05 23:11:00,
2013-01-05 18:16:00,22.8,12.3,30.34,West,270,0.0,0.0,64,0.00,,,0.00,WUHU216HW,2013-01-05 23:16:00,
2013-01-05 18:21:00,22.6,12.2,30.34,West,270,0.0,0.0,64,0.00,,,0.00,WUHU216HW,2013-01-05 23:21:00,
2013-01-05 18:26:00,22.2,12.2,30.34,West,270,0.0,0.0,65,0.00,,,0.00,WUHU216HW,2013-01-05 23:26:00,
2013-01-05 18:31:00,22.1,12.0,30.34,West,270,0.0,0.0,65,0.00,,,0.00,WUHU216HW,2013-01-05 23:31:00,
2013-01-05 18:36:00,22.1,12.0,30.35,West,270,0.0,0.0,65,0.00,,,0.00,WUHU216HW,2013-01-05 23:36:00,
2013-01-05 18:41:00,21.9,12.2,30.35,West,270,0.0,0.0,66,0.00,,,0.00,WUHU216HW,2013-01-05 23:41:00,
2013-01-05 18:47:00,21.9,12.2,30.35,West,270,0.0,0.0,66,0.00,,,0.00,WUHU216HW,2013-01-05 23:47:00,
2013-01-05 18:52:00,21.7,12.0,30.35,West,270,0.0,0.0,66,0.00,,,0.00,WUHU216HW,2013-01-05 23:52:00,
2013-01-05 18:57:00,21.3,11.7,30.35,West,270,0.0,0.0,66,0.00,,,0.00,WUHU216HW,2013-01-05 23:57:00,
2013-01-05 19:02:00,21.0,11.3,30.34,West,270,0.0,0.0,66,0.00,,,0.00,WUHU216HW,2013-01-06 00:02:00,
2013-01-05 19:07:00,21.0,11.3,30.35,West,270,0.0,0.0,66,0.00,,,0.00,WUHU216HW,2013-01-06 00:07:00,
2013-01-05 19:12:00,20.8,11.1,30.35,West,270,0.0,0.0,66,0.00,,,0.00,WUHU216HW,2013-01-06 00:12:00,
2013-01-05 19:17:00,20.8,11.0,30.35,West,270,0.0,0.0,66,0.00,,,0.00,WUHU216HW,2013-01-06 00:17:00,
2013-01-05 19:22:00,20.3,10.9,30.34,West,270,0.0,0.0,67,0.00,,,0.00,WUHU216HW,2013-01-06 00:22:00,
2013-01-05 19:27:00,20.1,10.8,30.34,West,270,0.0,0.0,67,0.00,,,0.00,WUHU216HW,2013-01-06 00:27:00,
2013-01-05 19:32:00,19.9,10.6,30.34,West,270,0.0,0.0,67,0.00,,,0.00,WUHU216HW,2013-01-06 00:32:00,
2013-01-05 19:37:00,19.7,10.4,30.34,West,270,0.0,0.0,67,0.00,,,0.00,WUHU216HW,2013-01-06 00:37:00,
2013-01-05 19:42:00,19.5,10.6,30.34,West,270,0.0,0.0,68,0.00,,,0.00,WUHU216HW,2013-01-06 00:42:00,
2013-01-05 19:47:00,19.2,10.2,30.34,West,270,0.0,0.0,68,0.00,,,0.00,WUHU216HW,2013-01-06 00:47:00,
2013-01-05 19:52:00,19.0,10.1,30.34,West,270,0.0,0.0,68,0.00,,,0.00,WUHU216HW,2013-01-06 00:52:00,
2013-01-05 19:57:00,18.8,9.9,30.34,West,270,0.0,0.0,68,0.00,,,0.00,WUHU216HW,2013-01-06 00:57:00,
2013-01-05 20:02:00,18.6,9.7,30.34,West,270,0.0,0.0,68,0.00,,,0.00,WUHU216HW,2013-01-06 01:02:00,
2013-01-05 20:07:00,18.3,9.4,30.34,West,270,0.0,0.0,68,0.00,,,0.00,WUHU216HW,2013-01-06 01:07:00,
2013-01-05 20:12:00,18.1,9.3,30.33,West,270,0.0,0.0,68,0.00,,,0.00,WUHU216HW,2013-01-06 01:12:00,
2013-01-05 20:17:00,17.9,9.1,30.33,West,270,0.0,0.0,68,0.00,,,0.00,WUHU216HW,2013-01-06 01:17:00,
2013-01-05 20:22:00,17.7,9.3,30.34,West,270,0.0,0.0,69,0.00,,,0.00,WUHU216HW,2013-01-06 01:22:00,
2013-01-05 20:27:00,17.6,9.1,30.33,West,270,0.0,0.0,69,0.00,,,0.00,WUHU216HW,2013-01-06 01:27:00,
2013-01-05 20:32:00,17.4,8.9,30.34,West,270,0.0,0.0,69,0.00,,,0.00,WUHU216HW,2013-01-06 01:32:00,
2013-01-05 20:37:00,17.4,8.9,30.35,West,270,0.0,0.0,69,0.00,,,0.00,WUHU216HW,2013-01-06 01:37:00,
2013-01-05 20:42:00,17.2,8.7,30.35,West,270,0.0,0.0,69,0.00,,,0.00,WUHU216HW,2013-01-06 01:42:00,
2013-01-05 20:47:00,16.8,8.4,30.34,West,270,0.0,0.0,69,0.00,,,0.00,WUHU216HW,2013-01-06 01:47:00,
2013-01-05 20:52:00,16.8,8.4,30.33,West,270,0.0,0.0,69,0.00,,,0.00,WUHU216HW,2013-01-06 01:52:00,
2013-01-05 20:57:00,16.5,8.0,30.34,West,270,0.0,0.0,69,0.00,,,0.00,WUHU216HW,2013-01-06 01:57:00,
2013-01-05 21:02:00,16.5,8.0,30.34,West,270,0.0,0.0,69,0.00,,,0.00,WUHU216HW,2013-01-06 02:02:00,
2013-01-05 21:07:00,16.5,8.4,30.34,West,270,0.0,0.0,70,0.00,,,0.00,WUHU216HW,2013-01-06 02:07:00,
2013-01-05 21:12:00,16.5,8.4,30.34,West,270,0.0,0.0,70,0.00,,,0.00,WUHU216HW,2013-01-06 02:12:00,
2013-01-05 21:17:00,16.3,8.2,30.34,West,270,0.0,0.0,70,0.00,,,0.00,WUHU216HW,2013-01-06 02:17:00,
2013-01-05 21:22:00,16.1,8.0,30.33,West,270,0.0,0.0,70,0.00,,,0.00,WUHU216HW,2013-01-06 02:22:00,
2013-01-05 21:27:00,16.1,8.3,30.33,West,270,0.0,0.0,71,0.00,,,0.00,WUHU216HW,2013-01-06 02:27:00,
2013-01-05 21:32:00,15.9,8.1,30.33,West,270,0.0,0.0,71,0.00,,,0.00,WUHU216HW,2013-01-06 02:32:00,
2013-01-05 21:37:00,16.1,8.3,30.33,West,270,0.0,0.0,71,0.00,,,0.00,WUHU216HW,2013-01-06 02:37:00,
2013-01-05 21:42:00,16.1,8.3,30.33,West,270,0.0,0.0,71,0.00,,,0.00,WUHU216HW,2013-01-06 02:42:00,
2013-01-05 21:47:00,15.9,8.1,30.34,West,270,0.0,0.0,71,0.00,,,0.00,WUHU216HW,2013-01-06 02:47:00,
2013-01-05 21:52:00,15.6,7.8,30.33,West,270,0.0,0.0,71,0.00,,,0.00,WUHU216HW,2013-01-06 02:52:00,
2013-01-05 21:57:00,15.6,7.8,30.33,West,270,0.0,0.0,71,0.00,,,0.00,WUHU216HW,2013-01-06 02:57:00,
2013-01-05 22:02:00,15.4,7.6,30.33,West,270,0.0,0.0,71,0.00,,,0.00,WUHU216HW,2013-01-06 03:02:00,
2013-01-05 22:08:00,15.4,7.6,30.34,West,270,0.0,0.0,71,0.00,,,0.00,WUHU216HW,2013-01-06 03:08:00,
2013-01-05 22:13:00,15.4,7.6,30.33,West,270,0.0,0.0,71,0.00,,,0.00,WUHU216HW,2013-01-06 03:13:00,
2013-01-05 22:18:00,15.0,7.3,30.33,West,270,0.0,0.0,71,0.00,,,0.00,WUHU216HW,2013-01-06 03:18:00,
2013-01-05 22:23:00,15.0,7.6,30.33,West,270,0.0,0.0,72,0.00,,,0.00,WUHU216HW,2013-01-06 03:23:00,
2013-01-05 22:28:00,14.9,7.4,30.33,West,270,0.0,0.0,72,0.00,,,0.00,WUHU216HW,2013-01-06 03:28:00,
2013-01-05 22:33:00,14.9,7.4,30.33,West,270,0.0,0.0,72,0.00,,,0.00,WUHU216HW,2013-01-06 03:33:00,
2013-01-05 22:38:00,14.7,7.3,30.32,West,270,0.0,0.0,72,0.00,,,0.00,WUHU216HW,2013-01-06 03:38:00,
2013-01-05 22:43:00,14.7,7.3,30.31,West,270,0.0,0.0,72,0.00,,,0.00,WUHU216HW,2013-01-06 03:43:00,
2013-01-05 22:48:00,14.7,7.3,30.31,West,270,0.0,0.0,72,0.00,,,0.00,WUHU216HW,2013-01-06 03:48:00,
2013-01-05 22:53:00,14.7,7.3,30.31,West,270,0.0,0.0,72,0.00,,,0.00,WUHU216HW,2013-01-06 03:53:00,
2013-01-05 22:58:00,14.9,7.4,30.31,West,270,0.0,0.0,72,0.00,,,0.00,WUHU216HW,2013-01-06 03:58:00,
2013-01-05 23:03:00,14.9,7.4,30.31,West,270,0.0,0.0,72,0.00,,,0.00,WUHU216HW,2013-01-06 04:03:00,
2013-01-05 23:08:00,14.9,7.3,30.30,West,270,0.0,0.0,72,0.00,,,0.00,WUHU216HW,2013-01-06 04:08:00,
2013-01-05 23:13:00,14.7,7.3,30.31,West,270,0.0,0.0,72,0.00,,,0.00,WUHU216HW,2013-01-06 04:13:00,
2013-01-05 23:18:00,14.9,7.7,30.31,West,270,0.0,0.0,73,0.00,,,0.00,WUHU216HW,2013-01-06 04:18:00,
2013-01-05 23:23:00,14.9,7.7,30.31,West,270,0.0,0.0,73,0.00,,,0.00,WUHU216HW,2013-01-06 04:23:00,
2013-01-05 23:28:00,14.7,7.7,30.30,West,270,0.0,0.0,73,0.00,,,0.00,WUHU216HW,2013-01-06 04:28:00,
2013-01-05 23:33:00,14.7,7.6,30.30,West,270,0.0,0.0,73,0.00,,,0.00,WUHU216HW,2013-01-06 04:33:00,
2013-01-05 23:38:00,14.7,7.6,30.30,West,270,0.0,0.0,73,0.00,,,0.00,WUHU216HW,2013-01-06 04:38:00,
2013-01-05 23:43:00,14.5,7.4,30.30,West,270,0.0,0.0,73,0.00,,,0.00,WUHU216HW,2013-01-06 04:43:00,
2013-01-05 23:48:00,14.5,7.4,30.30,West,270,0.0,0.0,73,0.00,,,0.00,WUHU216HW,2013-01-06 04:48:00,
2013-01-05 23:53:00,14.3,7.2,30.30,West,270,0.0,0.0,73,0.00,,,0.00,WUHU216HW,2013-01-06 04:53:00,
2013-01-05 23:58:00,14.1,7.1,30.29,West,270,0.0,0.0,73,0.00,,,0.00,WUHU216HW,2013-01-06 04:58:00,